Погода в Барыше

Россия / Ульяновская область     53°39′12″N   47°07′04″E
темп.,
°C
ветер,
м/с
пор.,
м/с
влажн.,
%
обл.,
%
осадки,
мм/ч
давл.,
гПа
погр.,
м
23 января, сб
сб2301:00−9ююв479599 0.6 1021218
04:00−9ююв3696100 1.3 1020154
07:00−7ююв4796100 0.2 1020178
10:00−5ю4996100 0.4 1020215
13:000ююз51199100 0.1 1020396
16:00+1юз51099100 0.4 1019481
19:00+1юз51199100 0.1 1019386
22:00+1юз51197100 0.1 1020452
24 января, вс
вс2401:00+1юз51197100 0.0 1021405
04:00+1юз4897100 0.0 1021277
07:00+1ююз3696100 0.0 1022193
10:00+1ююз4898100 0.0 1023279
13:00+1ююз51099100 0.1 1023287
16:00+1ююз61197100 0.2 1023364
19:00+1ююз51189100 0.1 1024399
22:000ююз51290100 0.1 1025403
25 января, пн
пн2501:000ююз51290100 0.0 1025382
04:00−3ююз5129498 0.0 1026293
07:00−3ю5995100 0.0 1026291
10:00−4ю51194100 0.0 1027298
13:00−3ю6119596 0.0 1026360
16:00−3ююв6119597 0.0 1025449
19:00−4ююв61096100 0.0 1025454
22:00−3ю61195100 0.1 1025476
26 января, вт
вт2601:00−2ю51094100 0.0 1025534
04:00−3ю5995100 0.1 1025450
07:00−4ю5993100 0.0 1025511
10:00−3ю6993100 0.1 1025526
13:00−4ююв61095100 0.0 1024453
16:00−4ююв61194100 0.1 1023387
19:00−4ююв61295100 0.0 1022431
22:00−3ююв71395100 0.0 1021538
27 января, ср
ср2701:00−3ююв81593100 0.1 1021529
04:00−3ю71396100 1.1 1020518
07:00−3ююв71394100 0.5 1019377
10:00−2ю71393100 0.5 1020517
13:00−1ююв71195100 0.0 1019459
16:00−1ю61094100 0.0 1019453
19:00−2ююв51096100 0.8 1019417
22:00−3ююв61195100 1.1 1019384